Time,TemperatureF,DewpointF,PressureIn,WindDirection,WindDirectionDegrees,WindSpeedMPH,WindSpeedGustMPH,Humidity,HourlyPrecipIn,Conditions,Clouds,dailyrainin,SoftwareType,DateUTC
2013-05-26 00:01:00,64.0,61.0,29.79,ESE,107,31.0,-999.0,88,-99.99,,,-99.99,,2013-05-26 06:01:00,
2013-05-26 00:12:00,64.0,61.0,29.80,ESE,114,27.0,-999.0,90,-99.99,,,-99.99,,2013-05-26 06:12:00,
2013-05-26 00:22:00,64.0,61.0,29.80,ESE,123,22.0,-999.0,91,-99.99,,,-99.99,,2013-05-26 06:22:00,
2013-05-26 00:32:00,63.0,61.0,29.79,ESE,123,31.0,-999.0,93,-99.99,,,-99.99,,2013-05-26 06:32:00,
2013-05-26 00:42:00,63.0,62.0,29.77,SE,124,20.0,-999.0,94,-99.99,,,-99.99,,2013-05-26 06:42:00,
2013-05-26 00:52:00,63.0,62.0,29.78,SE,125,21.0,-999.0,96,-99.99,,,-99.99,,2013-05-26 06:52:00,
2013-05-26 01:01:00,63.0,62.0,29.77,ESE,122,22.0,-999.0,96,-99.99,,,-99.99,,2013-05-26 07:01:00,
2013-05-26 01:11:00,63.0,62.0,29.78,SE,125,27.0,-999.0,97,-99.99,,,-99.99,,2013-05-26 07:11:00,
2013-05-26 01:21:00,63.0,62.0,29.78,SE,124,24.0,-999.0,97,-99.99,,,-99.99,,2013-05-26 07:21:00,
2013-05-26 01:31:00,63.0,62.0,29.77,SE,129,26.0,-999.0,98,-99.99,,,-99.99,,2013-05-26 07:31:00,
2013-05-26 01:42:00,63.0,62.0,29.77,SE,128,22.0,-999.0,98,-99.99,,,-99.99,,2013-05-26 07:42:00,
2013-05-26 01:52:00,63.0,62.0,29.78,ESE,117,17.0,-999.0,98,-99.99,,,-99.99,,2013-05-26 07:52:00,
2013-05-26 02:01:00,62.0,62.0,29.78,East,99,14.0,-999.0,98,-99.99,,,-99.99,,2013-05-26 08:01:00,
2013-05-26 02:12:00,62.0,61.0,29.78,ENE,61,14.0,-999.0,98,-99.99,,,-99.99,,2013-05-26 08:12:00,
2013-05-26 02:21:00,61.0,61.0,29.77,NE,54,20.0,-999.0,98,-99.99,,,-99.99,,2013-05-26 08:21:00,
2013-05-26 02:32:00,60.0,60.0,29.80,ENE,71,18.0,-999.0,98,-99.99,,,-99.99,,2013-05-26 08:32:00,
2013-05-26 02:42:00,60.0,59.0,29.78,ENE,73,21.0,-999.0,98,-99.99,,,-99.99,,2013-05-26 08:42:00,
2013-05-26 02:53:00,60.0,59.0,29.79,ENE,75,22.0,-999.0,98,-99.99,,,-99.99,,2013-05-26 08:53:00,
2013-05-26 03:01:00,59.0,59.0,29.80,East,90,20.0,-999.0,98,-99.99,,,-99.99,,2013-05-26 09:01:00,
2013-05-26 03:11:00,59.0,58.0,29.77,East,93,19.0,-999.0,98,-99.99,,,-99.99,,2013-05-26 09:11:00,
2013-05-26 03:21:00,59.0,58.0,29.81,ENE,69,14.0,-999.0,98,-99.99,,,-99.99,,2013-05-26 09:21:00,
2013-05-26 03:33:00,58.0,58.0,29.83,ENE,60,19.0,-999.0,98,-99.99,,,-99.99,,2013-05-26 09:33:00,
2013-05-26 03:42:00,58.0,57.0,29.84,NE,48,21.0,-999.0,98,-99.99,,,-99.99,,2013-05-26 09:42:00,
2013-05-26 03:52:00,57.0,56.0,29.84,ENE,62,24.0,-999.0,98,-99.99,,,-99.99,,2013-05-26 09:52:00,
2013-05-26 04:02:00,56.0,56.0,29.85,NE,55,23.0,-999.0,98,-99.99,,,-99.99,,2013-05-26 10:02:00,
2013-05-26 04:12:00,55.0,54.0,29.83,ENE,73,36.0,-999.0,98,-99.99,,,-99.99,,2013-05-26 10:12:00,
2013-05-26 04:23:00,54.0,53.0,29.83,ENE,63,35.0,-999.0,98,-99.99,,,-99.99,,2013-05-26 10:23:00,
2013-05-26 04:33:00,53.0,53.0,29.82,ENE,71,27.0,-999.0,98,-99.99,,,-99.99,,2013-05-26 10:33:00,
2013-05-26 04:42:00,52.0,52.0,29.83,East,80,44.0,-999.0,98,-99.99,,,-99.99,,2013-05-26 10:42:00,
2013-05-26 04:52:00,52.0,52.0,29.85,East,80,38.0,-999.0,98,-99.99,,,-99.99,,2013-05-26 10:52:00,
2013-05-26 05:03:00,52.0,51.0,29.87,East,79,28.0,-999.0,98,-99.99,,,-99.99,,2013-05-26 11:03:00,
2013-05-26 05:11:00,51.0,51.0,29.84,East,91,29.0,-999.0,98,-99.99,,,-99.99,,2013-05-26 11:11:00,
2013-05-26 05:22:00,51.0,51.0,29.84,East,87,35.0,-999.0,98,-99.99,,,-99.99,,2013-05-26 11:22:00,
2013-05-26 05:32:00,51.0,51.0,29.84,East,88,31.0,-999.0,98,-99.99,,,-99.99,,2013-05-26 11:32:00,
2013-05-26 05:42:00,51.0,51.0,29.87,East,93,24.0,-999.0,98,-99.99,,,-99.99,,2013-05-26 11:42:00,
2013-05-26 05:52:00,51.0,50.0,29.84,East,96,26.0,-999.0,98,-99.99,,,-99.99,,2013-05-26 11:52:00,
2013-05-26 06:02:00,51.0,50.0,29.85,East,100,22.0,-999.0,98,-99.99,,,-99.99,,2013-05-26 12:02:00,
2013-05-26 06:12:00,50.0,50.0,29.84,ESE,104,29.0,-999.0,98,-99.99,,,-99.99,,2013-05-26 12:12:00,
2013-05-26 06:21:00,50.0,50.0,29.85,East,100,24.0,-999.0,98,-99.99,,,-99.99,,2013-05-26 12:21:00,
2013-05-26 06:32:00,50.0,50.0,29.87,ESE,107,29.0,-999.0,98,-99.99,,,-99.99,,2013-05-26 12:32:00,
2013-05-26 06:42:00,50.0,50.0,29.84,ESE,103,29.0,-999.0,98,-99.99,,,-99.99,,2013-05-26 12:42:00,
2013-05-26 06:52:00,50.0,49.0,29.84,East,99,25.0,-999.0,98,-99.99,,,-99.99,,2013-05-26 12:52:00,
2013-05-26 07:02:00,50.0,49.0,29.94,NE,49,17.0,-999.0,98,-99.99,,,-99.99,,2013-05-26 13:02:00,
2013-05-26 07:11:00,50.0,50.0,29.93,ENE,63,20.0,-999.0,98,-99.99,,,-99.99,,2013-05-26 13:11:00,
2013-05-26 07:21:00,50.0,50.0,29.93,East,79,19.0,-999.0,98,-99.99,,,-99.99,,2013-05-26 13:21:00,
2013-05-26 07:32:00,50.0,50.0,29.94,ENE,76,21.0,-999.0,98,-99.99,,,-99.99,,2013-05-26 13:32:00,
2013-05-26 07:42:00,50.0,50.0,29.94,NE,54,16.0,-999.0,98,-99.99,,,-99.99,,2013-05-26 13:42:00,
2013-05-26 07:52:00,51.0,50.0,29.93,ENE,66,19.0,-999.0,98,-99.99,,,-99.99,,2013-05-26 13:52:00,
2013-05-26 08:02:00,51.0,50.0,29.94,NE,50,17.0,-999.0,98,-99.99,,,-99.99,,2013-05-26 14:02:00,
2013-05-26 08:11:00,51.0,50.0,29.95,NE,46,19.0,-999.0,98,-99.99,,,-99.99,,2013-05-26 14:11:00,
2013-05-26 08:21:00,51.0,50.0,29.94,NE,54,23.0,-999.0,98,-99.99,,,-99.99,,2013-05-26 14:21:00,
2013-05-26 08:32:00,51.0,51.0,29.94,ENE,57,21.0,-999.0,98,-99.99,,,-99.99,,2013-05-26 14:32:00,
2013-05-26 08:42:00,51.0,51.0,29.95,ENE,59,18.0,-999.0,98,-99.99,,,-99.99,,2013-05-26 14:42:00,
2013-05-26 08:52:00,52.0,51.0,29.95,NE,52,18.0,-999.0,98,-99.99,,,-99.99,,2013-05-26 14:52:00,
2013-05-26 09:01:00,51.0,51.0,29.95,ENE,76,19.0,-999.0,98,-99.99,,,-99.99,,2013-05-26 15:01:00,
2013-05-26 09:12:00,52.0,51.0,29.94,NE,45,20.0,-999.0,98,-99.99,,,-99.99,,2013-05-26 15:12:00,
2013-05-26 09:22:00,52.0,51.0,29.94,ENE,63,18.0,-999.0,98,-99.99,,,-99.99,,2013-05-26 15:22:00,
2013-05-26 09:33:00,52.0,52.0,29.94,ENE,65,20.0,-999.0,98,-99.99,,,-99.99,,2013-05-26 15:33:00,
2013-05-26 09:43:00,52.0,52.0,29.92,ENE,65,23.0,-999.0,98,-99.99,,,-99.99,,2013-05-26 15:43:00,
2013-05-26 09:53:00,53.0,52.0,29.92,ENE,66,21.0,-999.0,98,-99.99,,,-99.99,,2013-05-26 15:53:00,
2013-05-26 10:03:00,53.0,53.0,29.92,ENE,64,22.0,-999.0,98,-99.99,,,-99.99,,2013-05-26 16:03:00,
2013-05-26 10:12:00,54.0,53.0,29.91,ENE,75,17.0,-999.0,98,-99.99,,,-99.99,,2013-05-26 16:12:00,
2013-05-26 10:23:00,54.0,54.0,29.91,East,80,17.0,-999.0,98,-99.99,,,-99.99,,2013-05-26 16:23:00,
2013-05-26 10:33:00,55.0,54.0,29.89,East,87,20.0,-999.0,98,-99.99,,,-99.99,,2013-05-26 16:33:00,
2013-05-26 10:42:00,55.0,54.0,29.91,East,93,18.0,-999.0,98,-99.99,,,-99.99,,2013-05-26 16:42:00,
2013-05-26 10:52:00,55.0,55.0,29.91,ESE,103,22.0,-999.0,98,-99.99,,,-99.99,,2013-05-26 16:52:00,
2013-05-26 11:02:00,56.0,55.0,29.91,ESE,108,22.0,-999.0,98,-99.99,,,-99.99,,2013-05-26 17:02:00,
2013-05-26 11:11:00,55.0,55.0,29.91,ESE,102,17.0,-999.0,98,-99.99,,,-99.99,,2013-05-26 17:11:00,
2013-05-26 11:22:00,55.0,55.0,29.92,ESE,105,13.0,-999.0,98,-99.99,,,-99.99,,2013-05-26 17:22:00,
2013-05-26 11:32:00,55.0,55.0,29.92,ESE,107,22.0,-999.0,98,-99.99,,,-99.99,,2013-05-26 17:32:00,
2013-05-26 11:42:00,55.0,55.0,29.89,East,89,18.0,-999.0,98,-99.99,,,-99.99,,2013-05-26 17:42:00,
2013-05-26 11:52:00,56.0,56.0,29.91,ESE,104,13.0,-999.0,98,-99.99,,,-99.99,,2013-05-26 17:52:00,
2013-05-26 12:01:00,57.0,56.0,29.89,ESE,107,14.0,-999.0,98,-99.99,,,-99.99,,2013-05-26 18:01:00,
2013-05-26 12:12:00,57.0,56.0,29.91,East,99,17.0,-999.0,98,-99.99,,,-99.99,,2013-05-26 18:12:00,
2013-05-26 12:21:00,57.0,57.0,29.90,ESE,122,11.0,-999.0,98,-99.99,,,-99.99,,2013-05-26 18:21:00,
2013-05-26 12:32:00,58.0,57.0,29.91,ESE,104,14.0,-999.0,97,-99.99,,,-99.99,,2013-05-26 18:32:00,
2013-05-26 12:42:00,58.0,57.0,29.92,SE,137,14.0,-999.0,97,-99.99,,,-99.99,,2013-05-26 18:42:00,
2013-05-26 12:52:00,58.0,57.0,29.89,SE,135,13.0,-999.0,97,-99.99,,,-99.99,,2013-05-26 18:52:00,
2013-05-26 13:01:00,58.0,57.0,29.90,ESE,119,13.0,-999.0,94,-99.99,,,-99.99,,2013-05-26 19:01:00,
2013-05-26 13:11:00,58.0,56.0,29.89,SE,130,11.0,-999.0,92,-99.99,,,-99.99,,2013-05-26 19:11:00,
2013-05-26 13:22:00,59.0,56.0,29.89,SE,134,8.0,-999.0,92,-99.99,,,-99.99,,2013-05-26 19:22:00,
2013-05-26 13:32:00,59.0,56.0,29.89,SE,140,9.0,-999.0,92,-99.99,,,-99.99,,2013-05-26 19:32:00,
2013-05-26 13:42:00,59.0,57.0,29.88,SE,133,6.0,-999.0,93,-99.99,,,-99.99,,2013-05-26 19:42:00,
2013-05-26 13:52:00,58.0,56.0,29.89,SSE,155,3.0,-999.0,93,-99.99,,,-99.99,,2013-05-26 19:52:00,
2013-05-26 14:02:00,59.0,56.0,29.88,SE,127,8.0,-999.0,92,-99.99,,,-99.99,,2013-05-26 20:02:00,
2013-05-26 14:11:00,59.0,56.0,29.88,SSE,161,5.0,-999.0,90,-99.99,,,-99.99,,2013-05-26 20:11:00,
2013-05-26 14:22:00,59.0,56.0,29.89,South,188,3.0,-999.0,89,-99.99,,,-99.99,,2013-05-26 20:22:00,
2013-05-26 14:32:00,60.0,57.0,29.89,SSE,167,6.0,-999.0,90,-99.99,,,-99.99,,2013-05-26 20:32:00,
2013-05-26 14:42:00,59.0,56.0,29.89,SE,137,7.0,-999.0,91,-99.99,,,-99.99,,2013-05-26 20:42:00,
2013-05-26 14:52:00,60.0,57.0,29.88,ESE,120,5.0,-999.0,90,-99.99,,,-99.99,,2013-05-26 20:52:00,
2013-05-26 15:02:00,60.0,56.0,29.87,ESE,109,3.0,-999.0,87,-99.99,,,-99.99,,2013-05-26 21:02:00,
2013-05-26 15:11:00,61.0,57.0,29.87,NNE,19,3.0,-999.0,86,-99.99,,,-99.99,,2013-05-26 21:11:00,
2013-05-26 15:22:00,61.0,56.0,29.86,NE,42,4.0,-999.0,85,-99.99,,,-99.99,,2013-05-26 21:22:00,
2013-05-26 15:33:00,61.0,57.0,29.89,North,0,0.0,-999.0,86,-99.99,,,-99.99,,2013-05-26 21:33:00,
2013-05-26 15:43:00,61.0,57.0,29.88,SSW,213,3.0,-999.0,86,-99.99,,,-99.99,,2013-05-26 21:43:00,
2013-05-26 15:53:00,60.0,57.0,29.89,SSE,156,3.0,-999.0,89,-99.99,,,-99.99,,2013-05-26 21:53:00,
2013-05-26 16:03:00,60.0,57.0,29.86,East,79,6.0,-999.0,88,-99.99,,,-99.99,,2013-05-26 22:03:00,
2013-05-26 16:12:00,60.0,57.0,29.85,ENE,72,7.0,-999.0,90,-99.99,,,-99.99,,2013-05-26 22:12:00,
2013-05-26 16:23:00,60.0,57.0,29.86,ENE,64,8.0,-999.0,90,-99.99,,,-99.99,,2013-05-26 22:23:00,
2013-05-26 16:33:00,60.0,58.0,29.86,NE,37,12.0,-999.0,92,-99.99,,,-99.99,,2013-05-26 22:33:00,
2013-05-26 16:42:00,60.0,58.0,29.85,NE,35,14.0,-999.0,94,-99.99,,,-99.99,,2013-05-26 22:42:00,
2013-05-26 16:53:00,59.0,58.0,29.84,NE,39,13.0,-999.0,96,-99.99,,,-99.99,,2013-05-26 22:53:00,
2013-05-26 17:02:00,59.0,58.0,29.85,NE,51,14.0,-999.0,97,-99.99,,,-99.99,,2013-05-26 23:02:00,
2013-05-26 17:12:00,59.0,58.0,29.87,NNE,30,10.0,-999.0,97,-99.99,,,-99.99,,2013-05-26 23:12:00,
2013-05-26 17:22:00,59.0,58.0,29.87,NE,45,8.0,-999.0,98,-99.99,,,-99.99,,2013-05-26 23:22:00,
2013-05-26 17:32:00,58.0,58.0,29.86,NE,41,8.0,-999.0,98,-99.99,,,-99.99,,2013-05-26 23:32:00,
2013-05-26 17:43:00,59.0,58.0,29.85,NE,39,13.0,-999.0,96,-99.99,,,-99.99,,2013-05-26 23:43:00,
2013-05-26 17:52:00,60.0,58.0,29.86,NNE,33,11.0,-999.0,95,-99.99,,,-99.99,,2013-05-26 23:52:00,
2013-05-26 18:02:00,59.0,58.0,29.86,NE,36,12.0,-999.0,94,-99.99,,,-99.99,,2013-05-27 00:02:00,
2013-05-26 18:11:00,59.0,58.0,29.87,ENE,64,12.0,-999.0,96,-99.99,,,-99.99,,2013-05-27 00:11:00,
2013-05-26 18:21:00,59.0,58.0,29.86,NE,54,13.0,-999.0,97,-99.99,,,-99.99,,2013-05-27 00:21:00,
2013-05-26 18:32:00,59.0,58.0,29.86,NE,54,13.0,-999.0,97,-99.99,,,-99.99,,2013-05-27 00:32:00,
2013-05-26 18:42:00,59.0,58.0,29.86,NE,35,14.0,-999.0,97,-99.99,,,-99.99,,2013-05-27 00:42:00,
2013-05-26 18:52:00,59.0,58.0,29.85,NE,53,9.0,-999.0,98,-99.99,,,-99.99,,2013-05-27 00:52:00,
2013-05-26 19:01:00,58.0,58.0,29.86,ENE,57,12.0,-999.0,98,-99.99,,,-99.99,,2013-05-27 01:01:00,
2013-05-26 19:11:00,58.0,58.0,29.86,ENE,60,11.0,-999.0,98,-99.99,,,-99.99,,2013-05-27 01:11:00,
2013-05-26 19:22:00,58.0,58.0,29.86,ENE,68,15.0,-999.0,98,-99.99,,,-99.99,,2013-05-27 01:22:00,
2013-05-26 19:31:00,58.0,58.0,29.86,NE,55,13.0,-999.0,98,-99.99,,,-99.99,,2013-05-27 01:31:00,
2013-05-26 19:42:00,58.0,58.0,29.85,ENE,60,15.0,-999.0,98,-99.99,,,-99.99,,2013-05-27 01:42:00,
2013-05-26 19:52:00,58.0,58.0,29.85,ENE,57,14.0,-999.0,98,-99.99,,,-99.99,,2013-05-27 01:52:00,
2013-05-26 20:02:00,58.0,58.0,29.86,ENE,63,15.0,-999.0,98,-99.99,,,-99.99,,2013-05-27 02:02:00,
2013-05-26 20:11:00,58.0,58.0,29.85,ENE,61,15.0,-999.0,98,-99.99,,,-99.99,,2013-05-27 02:11:00,
2013-05-26 20:22:00,58.0,58.0,29.86,ENE,60,16.0,-999.0,98,-99.99,,,-99.99,,2013-05-27 02:22:00,
2013-05-26 20:32:00,58.0,58.0,29.85,ENE,62,18.0,-999.0,98,-99.99,,,-99.99,,2013-05-27 02:32:00,
2013-05-26 20:42:00,58.0,57.0,29.84,ENE,66,14.0,-999.0,98,-99.99,,,-99.99,,2013-05-27 02:42:00,
2013-05-26 20:52:00,58.0,57.0,29.85,ENE,61,16.0,-999.0,98,-99.99,,,-99.99,,2013-05-27 02:52:00,
2013-05-26 21:02:00,58.0,57.0,29.85,ENE,68,13.0,-999.0,98,-99.99,,,-99.99,,2013-05-27 03:02:00,
2013-05-26 21:11:00,58.0,57.0,29.85,ENE,64,10.0,-999.0,98,-99.99,,,-99.99,,2013-05-27 03:11:00,
2013-05-26 21:21:00,58.0,57.0,29.85,NE,55,10.0,-999.0,98,-99.99,,,-99.99,,2013-05-27 03:21:00,
2013-05-26 21:33:00,58.0,57.0,29.85,ENE,60,10.0,-999.0,98,-99.99,,,-99.99,,2013-05-27 03:33:00,
2013-05-26 21:43:00,58.0,57.0,29.84,ENE,63,13.0,-999.0,98,-99.99,,,-99.99,,2013-05-27 03:43:00,
2013-05-26 21:53:00,58.0,57.0,29.84,ENE,70,14.0,-999.0,98,-99.99,,,-99.99,,2013-05-27 03:53:00,
2013-05-26 22:02:00,58.0,57.0,29.83,ENE,73,11.0,-999.0,98,-99.99,,,-99.99,,2013-05-27 04:02:00,
2013-05-26 22:12:00,58.0,57.0,29.86,ENE,74,13.0,-999.0,98,-99.99,,,-99.99,,2013-05-27 04:12:00,
2013-05-26 22:23:00,58.0,58.0,29.86,ENE,76,13.0,-999.0,98,-99.99,,,-99.99,,2013-05-27 04:23:00,
2013-05-26 22:33:00,58.0,57.0,29.85,ENE,77,18.0,-999.0,98,-99.99,,,-99.99,,2013-05-27 04:33:00,
2013-05-26 22:43:00,58.0,57.0,29.85,East,82,15.0,-999.0,98,-99.99,,,-99.99,,2013-05-27 04:43:00,
2013-05-26 22:52:00,58.0,57.0,29.84,ENE,75,19.0,-999.0,98,-99.99,,,-99.99,,2013-05-27 04:52:00,
2013-05-26 23:02:00,57.0,57.0,29.85,ENE,74,13.0,-999.0,98,-99.99,,,-99.99,,2013-05-27 05:02:00,
2013-05-26 23:12:00,57.0,57.0,29.85,East,81,17.0,-999.0,98,-99.99,,,-99.99,,2013-05-27 05:12:00,
2013-05-26 23:22:00,57.0,57.0,29.85,East,85,18.0,-999.0,98,-99.99,,,-99.99,,2013-05-27 05:22:00,
2013-05-26 23:32:00,57.0,56.0,29.85,East,93,18.0,-999.0,98,-99.99,,,-99.99,,2013-05-27 05:32:00,
2013-05-26 23:42:00,57.0,56.0,29.88,East,99,16.0,-999.0,98,-99.99,,,-99.99,,2013-05-27 05:42:00,
2013-05-26 23:52:00,56.0,56.0,29.86,ESE,102,16.0,-999.0,98,-99.99,,,-99.99,,2013-05-27 05:52:00,